Weather History for Dubuque, IA

Change the Weather History Date:

Wednesday, August 13, 2014

  Actual Average Record
Temperature  
Mean Temperature 67 °F 71 °F  
Max Temperature 83 °F 80 °F 97 °F (1895)
Min Temperature 50 °F 61 °F 45 °F (2004)
Degree Days  
Heating Degree Days 0 0  
Month to date heating degree days 1 0  
Since 1 June heating degree days 38 48  
Since 1 July heating degree days 28 8  
Cooling Degree Days 2 6  
Month to date cooling degree days 51 83  
Year to date cooling degree days 361 483  
Since 1 June cooling degree days 307 446  
Growing Degree Days 16 (Base 50)    
Moisture  
Dew Point 56 °F    
Average Humidity 71    
Maximum Humidity 96    
Minimum Humidity 45    
Precipitation  
Precipitation 0.00 in 0.15 in 2.79 in (1943)
Month to date precipitation 0.03 1.86  
Year to date precipitation 27.06 23.44  
Snow  
Snow 0.00 in 0.00 in - ()
Month to date snowfall 0.0 0.0  
Since 1 June snowfall 0.0 0.0  
Since 1 July snowfall 0.0 0.0  
Snow Depth 0.00 in    
Sea Level Pressure  
Sea Level Pressure 30.05 in    
Wind  
Wind Speed 7 mph (WNW)    
Max Wind Speed 17 mph    
Max Gust Speed 23 mph    
Visibility 10 miles    
Events      
T = Trace of Precipitation, MM = Missing Value Source: NWS Daily Summary

Daily Weather History Graph

Daily Weather History Graph

Search for Another Location

Airport:

Trip Planner

Search our weather history database for the weather conditions in past years. The results will help you decide how hot, cold, wet, or windy it might be!

Date:

Astronomy

Aug. 13, 2014 Rise Set
Actual Time 6:07 AM CDT 8:06 PM CDT
Civil Twilight 5:37 AM CDT 8:37 PM CDT
Nautical Twilight 4:59 AM CDT 9:14 PM CDT
Astronomical Twilight 4:19 AM CDT 9:54 PM CDT
Moon 9:46 PM CDT (8/13) 9:41 AM CDT (8/13)
Length of Visible Light 14h 59m
Length of Day
13h 58m
Waning Gibbous, 87% of the Moon is Illuminated
Aug 13
Waning Gibbous
Aug 17
Last Quarter
Aug 25
New
Sep 2
First Quarter
Sep 8
Full

Hourly Weather History & Observations

Time (CDT) Temp. Heat Index Dew Point Humidity Pressure Visibility Wind Dir Wind Speed Gust Speed Precip Events Conditions
12:53 AM 53.6 °F - 48.2 °F 82% 30.04 in 10.0 mi SW 3.5 mph - N/A   Clear
1:53 AM 52.0 °F - 48.9 °F 89% 30.04 in 10.0 mi SSW 3.5 mph - N/A   Clear
2:53 AM 53.1 °F - 50.0 °F 89% 30.03 in 10.0 mi Calm Calm - N/A   Clear
3:53 AM 52.0 °F - 50.0 °F 93% 30.04 in 10.0 mi SSW 4.6 mph - N/A   Clear
4:53 AM 51.1 °F - 48.9 °F 92% 30.05 in 10.0 mi SSW 3.5 mph - N/A   Clear
5:53 AM 51.1 °F - 48.9 °F 92% 30.06 in 10.0 mi SSW 4.6 mph - N/A   Clear
7:53 AM 60.1 °F - 55.0 °F 83% 30.09 in 10.0 mi SW 5.8 mph - N/A   Clear
8:53 AM 68.0 °F - 57.0 °F 68% 30.09 in 10.0 mi WNW 9.2 mph - N/A   Clear
9:53 AM 73.4 °F - 57.2 °F 57% 30.09 in 10.0 mi West 8.1 mph - N/A   Clear
10:53 AM 75.0 °F - 59.0 °F 57% 30.09 in 10.0 mi WNW 10.4 mph - N/A   Clear
11:53 AM 79.0 °F - 59.0 °F 50% 30.07 in 10.0 mi NW 12.7 mph - N/A   Clear
12:53 PM 79.0 °F - 57.0 °F 47% 30.07 in 10.0 mi West 13.8 mph - N/A   Partly Cloudy
1:53 PM 80.1 °F 80.6 °F 57.9 °F 47% 30.06 in 10.0 mi WNW 10.4 mph 21.9 mph N/A   Scattered Clouds
2:53 PM 82.4 °F 82.5 °F 59.0 °F 45% 30.06 in 10.0 mi NNW 11.5 mph 18.4 mph N/A   Scattered Clouds
3:53 PM 81.0 °F 81.3 °F 59.0 °F 47% 30.04 in 10.0 mi NW 10.4 mph - N/A   Mostly Cloudy
4:53 PM 78.1 °F - 60.1 °F 54% 30.04 in 10.0 mi NNW 10.4 mph - N/A   Overcast
5:53 PM 78.1 °F - 61.0 °F 56% 30.03 in 10.0 mi North 5.8 mph - N/A   Mostly Cloudy
6:53 PM 78.1 °F - 62.1 °F 58% 30.03 in 10.0 mi North 5.8 mph - N/A   Clear
7:53 PM 71.1 °F - 62.1 °F 73% 30.03 in 10.0 mi NNW 5.8 mph - N/A   Partly Cloudy
8:53 PM 69.1 °F - 61.0 °F 75% 30.04 in 10.0 mi NW 5.8 mph - N/A   Clear
9:53 PM 68.0 °F - 61.0 °F 78% 30.04 in 10.0 mi North 4.6 mph - N/A   Partly Cloudy
11:53 PM 66.0 °F - 61.0 °F 84% 30.06 in 10.0 mi NNE 6.9 mph - N/A   Partly Cloudy